STARLINK-30091, 57463

Orbit data source: Space-Track

STARLINK-30091, 57463 is a payload satellite owned by SpaceX/Seattle (US) in LEO that was launched on Fri, 28 Jul 2023 UTC via an FALCON 9 launch vehicle from the Air Force Eastern Test Range (AFETR). Payload-class satellites include a variety of spacecraft equipped with specific instruments for various scientific and technological missions. These include communications satellites like Starlink; space stations such as the ISS; scientific satellites like the Hubble; Earth observation satellites from companies like Planet Labs, Umbra, and HawkEye 360; GPS; miniature CubeSats for education and research; and military/defense satellites.

Not visible in the next 10 days
Identifier
57463, 2023-107G
Orbit
LEO
Country
Flag of USUS
Related business
Manufacturer
SpaceX/Seattle
Mission
Decayed Commercial Communications
Bus & Motor
STARLINK V2M, Unknown motor
Mass
730 kg wet, ~700 kg dry
Launch date (UTC)
2023-07-28 (3 years ago)
Launch vehicle
FALCON 9
Launch site
Air Force Eastern Test Range (AFETR)
Object type
Payload
Rocket body
Debris
Shape & HBR
Box + 2 Pan, 17.7 m
Radar Cross Section
33.884 m², Large (>1 m²)

Expand to show TLE details & history
Last TLE update: 2 days ago

TLE from 2 days ago
0 STARLINK-30091
1 57463U 23107G   26171.22197145  .12654868  87976-5  40127-2 0  9994
2 57463  42.9869 104.2391 0014028 183.5909 176.4880 16.25092031160948
Epoch: 2026-06-20T05:19Z
TLE epoch observation values (Epoch: 2026-06-20T05:19:38.333Z)
Latitude
0.00002°
Longitude
115.8897°
Altitude
214.744 km
Speed
7.774 km/s
True Right ascension
06h 56m 57s
True Declination
0° 00' 00"
Sunlit
Object was in daylight at epoch
Visualization orbit readout
Latitude
Unknown
Longitude
Unknown
Altitude
Unknown
Speed
Unknown
Apparent Right ascension
Unknown
Apparent Declination
Unknown
Sunlit
N/A
Visualization observer readout
Local Sidereal Time
21:26:36
Azimuth
Unknown
Elevation
Unknown
Doppler factor
Unknown
Orbital elements
Apogee altitude
217.03 km
Perigee altitude
198.553 km
Semi-major axis
6,585.929 km
Eccentricity
0.0014
Inclination
42.9869°
RAAN
104.2391°
Arg. of periapsis
183.5909°
True anomaly
176.49783°
Mean anomaly
176.488°
Eccentric anomaly
176.49292°
Mean motion
4.06086 °/min
Orbital period
88.65 mins
BSTAR
0.0040127
Loading maneuver chart data...
Computing Atmospheric mass density...
Loading historical data...
Loading historical data...
Loading historical data...
Loading historical data...
Loading historical data...
Loading historical data...
Loading historical data...

Documentation

Showing up to 5 results
|